Theta_e
324 324 323 323 324 324 325 324 324 324 324 324 323 323 322 323 320 321 321 321 321 321 321 321 320 320 319 319 318 318 317 318 317 317 317 316 316 315 314 313 312 312
324 323 322 323 323 322 324 325 325 324 324 324 324 324 324 322 322 322 321 321 320 321 322 321 321 320 320 319 318 318 319 318 317 316 317 316 316 316 316 315 314 313
323 323 323 322 323 322 323 323 324 325 324 324 324 325 324 322 323 321 322 321 321 320 321 322 322 321 321 321 320 319 318 318 318 317 316 316 316 316 316 315 313 311
322 323 323 323 323 323 323 322 323 324 324 323 323 323 322 322 321 321 321 316 321 321 320 321 322 322 322 321 320 319 319 319 319 318 316 316 316 316 316 315 312 310
321 322 323 323 323 322 322 322 322 323 323 323 323 321 318 320 319 320 320 320 321 321 321 321 321 322 321 321 320 319 318 318 319 318 317 315 315 314 314 312 309 307
319 320 321 322 322 321 322 322 322 322 322 322 322 319 319 319 317 317 316 317 318 320 321 321 320 321 321 320 320 319 318 317 317 317 316 315 314 311 309 306 306 305
318 318 319 320 319 320 320 321 321 319 322 322 319 320 318 315 316 316 316 316 316 316 319 320 319 319 319 319 318 317 317 317 316 314 314 313 312 310 307 306 305 304
316 311 315 316 317 318 318 320 320 320 320 317 318 319 316 317 316 317 315 316 316 317 318 319 319 319 318 317 316 315 315 315 314 311 310 310 307 307 304 303 303 303
310 310 311 311 314 316 316 317 317 314 313 316 316 316 313 317 318 318 317 317 316 316 317 317 318 317 317 316 315 315 314 312 311 310 310 311 310 309 307 302 300 300
307 306 305 306 308 310 311 312 312 311 311 313 315 315 315 315 316 318 316 316 315 315 315 315 315 315 315 314 316 315 314 315 313 311 311 311 310 309 306 301 300 298
304 304 306 306 307 307 307 307 307 307 307 310 312 313 314 313 312 313 314 315 315 314 314 314 314 314 314 313 313 314 314 314 313 311 307 304 302 302 300 297 297 297
301 301 303 305 305 305 304 303 303 302 305 304 306 311 309 310 312 312 312 314 314 314 314 314 314 313 313 313 311 310 310 308 304 304 304 306 305 304 301 298 297 297
299 300 301 302 302 303 301 300 301 301 302 304 302 304 306 307 308 310 309 312 313 313 313 314 314 313 312 311 310 308 306 305 304 302 300 299 298 297 296 295 295 294
299 298 298 299 299 298 299 297 296 296 299 301 300 303 305 306 308 309 310 309 311 311 312 311 311 310 308 307 307 307 305 304 303 301 298 295 294 293 293 293 292 292
296 294 295 295 294 296 296 296 295 295 294 294 295 299 301 302 303 304 306 307 305 305 305 303 305 305 304 304 305 305 304 303 302 298 294 294 292 291 290 291 290 291
293 293 294 294 295 295 294 293 293 293 293 293 294 294 295 295 297 298 300 300 300 298 299 299 300 301 298 299 299 302 301 299 297 294 293 292 292 290 289 289 290 289
292 293 293 293 292 290 289 291 292 291 292 292 292 292 293 293 293 295 294 294 295 295 295 296 298 298 297 298 298 299 297 296 295 293 291 291 291 292 291 289 288 288
293 292 293 292 291 290 289 287 288 290 291 291 291 291 289 289 291 291 291 291 292 292 292 292 293 294 297 297 297 297 295 295 294 292 291 291 291 291 290 288 288 287
292 293 292 291 290 289 288 287 288 288 289 290 290 288 288 289 289 290 289 289 290 291 291 290 291 293 295 295 296 296 296 295 293 292 291 291 290 290 289 288 287 286
291 291 291 289 289 288 288 288 288 288 287 287 287 287 288 288 288 288 288 289 289 290 290 289 290 291 294 294 294 295 295 294 291 292 291 290 290 290 289 288 287 287
291 290 289 289 288 287 287 287 288 287 287 287 287 288 288 288 288 288 288 288 288 289 289 289 289 291 293 293 294 294 295 293 289 289 290 289 289 288 288 288 288 288
290 289 289 288 287 287 287 287 287 288 287 287 287 287 286 287 287 287 287 287 287 288 288 288 288 291 292 293 293 294 294 289 288 288 288 288 287 287 287 287 287 287
290 290 288 288 287 287 287 287 287 287 286 287 287 287 287 287 287 286 287 287 287 288 288 287 287 290 291 292 293 294 291 287 288 287 287 287 286 286 286 285 285 285
290 290 289 287 287 288 288 287 286 286 287 287 288 287 287 286 286 286 286 287 287 287 288 288 287 287 290 291 292 293 290 287 287 287 286 286 285 284 284 284 284 284
290 290 289 288 288 288 288 287 287 287 286 287 287 287 287 286 286 287 286 286 286 287 286 287 286 286 289 291 292 292 289 287 287 286 286 285 284 283 283 283 282 284
289 289 288 288 288 288 287 287 287 286 286 287 286 287 287 286 286 286 286 286 286 286 286 286 286 286 287 290 291 291 290 287 287 287 286 285 284 284 283 283 283 282
Wind_Speed
12 11 12 11 12 11 10 11 10 10 10 10 11 11 11 10 7 10 10 10 11 11 11 11 10 10 10 9 9 8 8 10 10 9 10 10 10 11 10 10 9 9
15 13 11 11 10 10 11 11 11 11 12 11 11 10 9 8 8 9 9 10 10 11 10 9 9 10 10 9 9 9 9 9 11 8 9 11 11 11 13 12 12 11
14 13 14 14 14 14 13 10 10 11 11 11 10 10 9 7 8 8 9 9 9 9 9 9 10 10 10 10 10 10 10 10 11 9 9 11 10 11 11 12 10 11
15 15 14 15 14 14 11 10 11 11 10 10 11 9 8 7 7 8 8 9 9 9 9 9 11 10 10 10 10 10 11 12 11 10 10 10 10 11 12 12 11 10
13 13 13 13 13 11 9 11 13 12 11 12 9 8 7 8 8 8 8 8 9 9 9 10 10 11 10 10 10 10 10 10 10 9 10 11 11 10 10 10 12 12
10 11 12 12 11 10 10 12 13 11 11 11 11 7 9 8 8 9 8 9 8 9 10 10 10 10 10 10 9 10 10 9 10 11 11 12 12 10 6 4 6 9
11 10 11 10 9 9 11 12 11 11 11 10 6 10 8 8 9 9 9 9 10 10 11 10 10 10 10 9 9 10 10 10 10 11 11 10 9 10 9 10 11 11
10 6 7 7 9 10 11 11 11 10 9 7 9 10 8 9 10 9 9 10 10 11 11 11 11 11 10 10 10 9 9 8 8 9 10 8 5 6 7 9 10 11
6 7 7 7 9 10 10 11 9 7 7 9 10 9 7 10 10 10 10 10 11 11 11 10 11 10 9 10 11 10 10 8 7 7 9 10 12 12 12 9 8 9
8 7 7 7 9 8 9 8 8 7 7 9 10 8 9 9 9 10 9 10 10 10 9 9 8 8 8 9 11 11 11 12 11 11 11 12 12 13 10 8 11 9
8 7 8 9 9 8 9 9 8 8 7 9 8 9 9 8 7 7 8 8 9 9 9 9 9 8 9 8 8 10 11 11 11 11 9 5 3 2 2 3 5 7
7 6 8 9 9 8 8 6 6 6 6 6 6 8 7 6 7 7 8 9 9 9 9 9 9 10 9 9 8 7 7 7 4 5 6 6 8 9 9 9 10 10
7 8 7 7 7 7 5 5 5 5 5 5 4 6 6 6 6 7 7 7 8 8 9 9 10 10 10 9 7 6 6 6 6 6 6 6 5 5 5 5 5 4
6 5 5 5 5 4 5 4 4 4 5 5 5 6 7 7 7 8 8 7 8 8 9 8 7 7 7 7 8 8 8 8 7 7 5 4 3 4 5 6 5 6
4 4 4 4 4 4 4 4 3 3 2 2 4 5 6 5 4 4 5 6 6 6 5 4 4 5 4 5 6 7 5 5 5 4 4 4 4 3 3 4 5 6
4 4 4 3 3 3 2 1 1 1 1 2 2 2 3 3 4 4 4 4 4 3 2 3 3 3 5 7 6 4 4 4 4 4 4 4 5 4 3 4 4 5
4 4 4 4 3 3 2 2 1 1 1 1 1 2 2 2 3 3 3 3 4 4 3 3 2 2 3 4 5 5 4 4 4 4 4 5 6 7 8 5 4 3
5 5 5 4 4 3 3 2 2 1 1 1 2 2 1 2 2 3 3 3 3 3 3 3 2 2 3 5 6 8 8 5 5 5 6 6 6 6 4 4 5 5
5 6 5 4 3 3 3 2 1 1 2 2 2 2 3 3 3 3 3 2 3 3 3 3 2 3 5 7 8 9 10 8 5 6 6 6 6 6 6 6 7 6
5 5 4 3 3 2 2 2 2 2 2 2 3 3 3 3 3 3 3 3 3 4 4 3 3 4 6 7 7 8 9 8 4 6 5 5 6 6 6 7 8 8
5 4 4 3 3 3 3 3 3 3 3 3 3 3 4 4 4 4 3 3 3 3 3 3 2 3 4 6 7 8 9 6 3 3 3 3 4 4 5 6 7 8
6 5 4 4 5 4 4 4 4 5 4 3 3 3 3 3 2 2 3 2 2 2 2 1 1 2 2 4 6 6 8 4 4 5 4 4 3 3 3 3 3 4
7 7 6 6 5 5 5 5 5 4 4 3 4 4 4 3 3 2 3 4 3 3 3 3 2 3 6 7 7 9 7 3 4 3 3 3 3 2 3 3 2 3
8 8 8 8 7 7 6 5 4 3 4 4 5 5 4 4 4 3 3 3 4 4 5 4 3 3 5 6 7 9 7 5 4 4 3 3 3 2 2 3 3 6
9 9 9 9 9 8 8 8 7 6 4 4 4 4 4 4 4 4 3 2 3 4 5 5 3 2 4 5 7 9 7 5 5 4 4 3 3 3 3 4 4 5
8 9 8 9 9 8 7 7 6 6 6 6 5 5 5 4 4 4 4 3 3 4 4 4 5 3 4 7 8 10 10 7 5 6 6 6 5 4 4 2 3 3
Wind_Direction
216 213 217 217 223 223 221 218 217 218 221 219 223 226 222 224 202 202 209 211 214 217 219 218 217 219 219 215 213 213 215 218 219 215 211 208 215 216 218 218 215 211
213 211 214 217 224 222 222 216 216 216 222 220 224 227 224 215 212 205 208 210 211 219 219 219 219 220 218 215 212 212 218 218 223 213 215 214 218 215 220 214 213 213
212 209 211 213 218 220 218 216 217 221 223 224 226 225 226 212 216 208 212 210 212 217 219 220 221 219 218 217 212 213 216 218 222 215 216 218 216 214 217 212 213 212
214 213 213 217 219 221 214 211 220 224 224 227 225 224 222 217 208 212 214 210 215 217 217 218 222 221 219 217 214 215 217 219 219 214 216 219 214 211 211 208 210 209
213 214 216 220 221 220 209 213 221 221 222 226 226 218 214 215 206 213 212 211 212 218 216 219 221 223 220 219 215 218 217 220 218 216 216 217 216 210 217 208 208 208
216 216 217 220 219 210 212 217 223 220 222 224 223 206 217 210 208 213 209 209 212 216 219 219 219 220 218 219 216 220 217 216 215 212 215 215 216 214 220 208 206 210
218 214 217 216 215 211 214 220 223 219 220 222 208 218 210 204 213 213 209 209 212 215 218 219 219 219 216 217 216 219 219 216 214 209 213 222 221 219 219 212 210 206
221 213 211 205 210 214 216 219 221 218 218 209 213 220 202 210 214 213 210 209 212 215 218 220 219 218 213 212 213 216 220 217 217 213 221 232 227 222 210 206 204 203
209 208 202 202 208 215 218 220 221 216 203 209 216 218 206 211 214 213 212 211 214 215 216 217 217 216 211 208 213 212 214 217 218 213 213 216 218 222 218 208 207 216
208 206 197 204 210 215 217 218 213 210 202 210 215 212 213 215 215 215 214 212 216 215 216 218 219 219 215 211 213 212 214 218 217 217 217 221 221 221 216 195 204 204
210 199 202 206 211 210 215 213 211 211 206 211 211 215 217 212 216 217 216 215 217 216 217 219 220 219 221 221 221 219 219 218 220 216 213 210 218 229 221 227 247 231
210 202 210 211 212 215 216 212 210 209 210 217 210 217 214 212 209 210 211 215 215 216 216 217 218 218 216 219 219 222 227 230 212 192 190 201 211 210 199 189 194 204
206 209 208 212 211 214 209 208 211 209 207 218 211 217 212 212 212 212 215 215 217 216 215 215 217 213 214 217 215 206 201 195 197 202 208 214 214 200 194 199 202 195
208 203 203 208 204 196 195 194 184 189 203 209 199 209 213 210 208 208 214 208 215 214 219 222 220 207 204 208 203 197 193 198 198 202 204 201 193 195 191 188 173 168
192 192 183 174 163 151 150 153 158 166 175 183 190 205 203 204 205 213 215 214 215 211 210 190 197 213 211 204 204 208 199 192 195 195 191 193 193 185 172 167 169 182
188 177 174 150 137 140 131 100 92 95 135 165 178 176 161 153 161 168 179 195 193 192 173 164 178 180 182 193 194 191 194 182 154 168 174 177 179 179 192 191 187 179
177 181 154 145 134 107 95 100 94 103 127 141 142 147 157 144 140 145 155 160 171 176 180 180 171 161 168 183 198 177 154 165 171 161 161 173 183 193 205 187 168 157
171 160 154 148 130 119 104 94 93 105 113 127 135 125 95 99 107 129 131 142 146 149 163 171 181 144 164 174 173 171 163 162 164 169 178 186 192 196 189 159 156 146
155 154 148 134 125 118 107 91 90 95 108 120 130 135 113 115 142 135 136 127 131 142 151 150 163 162 181 181 182 180 172 163 172 176 176 186 188 188 179 169 158 154
154 141 132 125 115 107 115 138 153 152 135 128 131 123 120 124 122 128 134 142 158 162 160 161 166 184 179 176 178 177 174 168 170 174 177 179 187 185 178 168 167 167
148 135 133 130 123 128 140 164 172 154 147 153 152 156 150 151 148 135 145 145 138 135 136 138 167 180 175 174 175 174 170 155 137 129 140 164 172 178 175 174 182 189
147 142 143 143 144 141 150 164 171 179 173 166 129 117 114 113 99 105 129 114 91 88 88 75 27 51 165 177 171 168 151 135 138 138 149 156 158 163 162 163 165 179
153 151 155 154 152 153 166 170 172 169 166 161 138 151 147 147 151 140 147 137 136 139 138 140 159 189 186 180 175 160 140 127 125 119 129 149 151 139 133 132 154 174
158 160 164 165 162 172 176 179 174 163 170 174 161 160 156 160 144 123 129 148 155 162 162 158 187 202 178 175 164 159 143 139 136 134 133 142 122 104 109 128 161 177
168 168 170 169 173 178 174 172 176 174 162 156 151 148 152 154 152 142 141 138 152 153 158 153 161 186 178 176 170 157 136 133 140 144 147 156 149 145 148 157 168 185
169 170 174 175 179 176 176 172 159 148 160 157 157 155 153 156 152 150 150 152 143 146 155 157 155 169 179 173 168 158 151 148 151 153 177 176 173 167 169 187 182 192